#timestamp,LO_Frequency,Hit,StdDev 
1506567615.1,286046997.5,N
1506567635.8,286046995.3,N
1506567655.7,286046997.9,N
1506567675.5,286046994.9,N
1506567695.3,286046995.0,N
1506567715.2,286046998.9,N
1506567735.9,286046997.4,N
1506567755.7,286046996.9,N
1506567775.6,286046999.5,N
1506567795.4,286046999.0,N
1506567815.2,286046998.9,N
1506567835.1,286046997.2,N
1506567836.0,286046997.2,N
1506567855.8,286046998.8,N
1506567875.6,286046997.3,N
1506567895.5,286046997.8,N
1506567915.3,286046997.4,N
1506567935.1,286046996.5,N
1506567955.9,286046999.0,N
1506567975.7,286046996.9,N
1506567995.5,286046999.5,N
1506568015.3,286046996.5,N
1506568035.2,286046998.7,N
1506568055.0,286046999.5,N
1506568055.9,286046999.5,N
1506568075.7,286046999.5,N
1506568095.6,286046997.4,N
1506568115.4,286046997.8,N
1506568135.2,286046998.0,N
1506568155.1,286046997.5,N
1506568156.0,286046997.5,N
1506568175.8,286046994.9,Y
1506568195.6,286047000.8,P
1506568215.5,286046998.6,N
1506568235.3,286046997.7,N
1506568255.1,286046995.1,Y
1506568275.9,286046997.6,P
1506568295.7,286046996.9,P
1506568315.5,286046998.6,N
1506568335.4,286047000.2,N
1506568355.2,286046996.9,N
1506568375.0,286046997.2,N
1506568375.9,286046997.2,N
1506568395.8,286046997.2,N
1506568415.6,286046997.4,N
1506568435.4,286046997.2,N
1506568455.3,286046997.8,N
1506568475.1,286046999.0,N
1506568476.0,286046999.0,N
1506568495.8,286047000.8,N
1506568515.6,286047000.3,N
1506568535.5,286047001.1,N
1506568555.3,286047000.1,N
1506568575.1,286046999.7,N
1506568595.9,286047000.9,N
1506568615.7,286047001.1,N
1506568635.5,286047000.4,N
1506568655.4,286047000.1,N
1506568675.2,286047000.0,N
1506568695.0,286047000.1,N
1506568695.9,286047000.1,N
1506568715.8,286047001.3,N
1506568735.6,286047003.5,N
1506568755.4,286047004.4,N
1506568775.2,286047001.4,N
1506568795.1,286047001.6,N
1506568796.0,286047001.6,N
1506568815.8,286047003.9,N
1506568835.6,286047003.2,N
1506568855.5,286047005.1,N
1506568875.3,286047007.2,Y
1506568895.2,286047004.6,P
1506568915.9,286047004.6,N
1506568935.7,286047005.7,N
1506568955.5,286047005.5,N
1506568975.4,286047007.1,Y
1506568995.2,286046999.9,P
1506569015.0,286047000.0,N
1506569016.0,286047000.0,N
1506569035.8,286047000.1,N
1506569055.6,286047000.4,N
1506569075.4,286047000.4,N
1506569095.3,286046999.9,N
1506569115.1,286047002.4,N
1506569135.8,286047002.7,N
1506569155.7,286047004.0,N
1506569175.5,286047003.7,N
1506569195.3,286047003.3,N
1506569215.2,286047002.4,N
1506569235.9,286047002.0,N
1506569255.7,286047003.8,N
1506569275.6,286047003.8,N
1506569295.4,286047002.1,N
1506569315.2,286047002.9,N
1506569335.0,286047003.0,N
1506569335.9,286047003.0,N
1506569355.8,286047003.9,N
1506569375.6,286047000.3,N
1506569395.4,286046999.7,N
1506569415.3,286047000.9,N
1506569435.1,286047000.1,N
1506569436.0,286047000.1,N
1506569455.8,286047001.8,N
1506569475.7,286047004.4,N
1506569495.5,286047003.6,N
1506569515.3,286047003.4,N
1506569535.2,286047002.1,N
1506569555.9,286046999.9,N
1506569575.7,286047004.2,N
1506569595.6,286047004.3,N
1506569615.4,286047004.2,N
1506569635.2,286047000.4,N
1506569655.0,286046998.7,N
1506569655.9,286046998.7,N
1506569675.8,286046996.6,N
1506569695.6,286046997.7,N
1506569715.4,286046997.4,N
1506569735.3,286046997.8,N
1506569755.1,286046997.3,N
1506569775.8,286046997.0,N
1506569795.7,286046999.2,N
1506569815.5,286046998.7,N
1506569835.3,286047000.0,N
1506569855.2,286047001.9,N
1506569875.9,286047002.5,N
1506569895.7,286047004.0,N
1506569915.6,286047001.9,N
1506569935.4,286047002.3,N
1506569955.2,286047002.7,N
1506569975.1,286047003.9,N
1506569976.0,286047003.9,N
1506569995.8,286047003.7,N
1506570015.6,286047003.1,N
1506570035.4,286047004.4,N
1506570055.3,286047004.1,N
1506570075.1,286046999.7,N
1506570095.8,286047004.2,N
1506570115.7,286047003.4,N
1506570135.5,286047007.3,N
1506570155.3,286047005.6,N
1506570175.2,286047006.0,N
1506570195.9,286047005.6,N
1506570215.7,286047004.1,N
1506570235.6,286047005.4,N
1506570255.4,286047007.1,N
1506570275.2,286047005.6,N
1506570295.0,286047003.1,N
1506570296.0,286047003.1,N
1506570315.8,286047004.2,N
1506570335.6,286047003.8,N
1506570355.4,286047003.2,N
1506570375.3,286047005.5,N
1506570395.1,286047003.5,N
1506570415.8,286047004.1,N
1506570435.7,286047007.4,Y
1506570455.5,286047004.1,P
1506570475.3,286047003.9,P
1506570495.2,286047003.2,P
1506570515.9,286047004.1,Y
1506570535.7,286046998.3,P
1506570555.6,286046998.4,N
1506570575.4,286046998.4,N
1506570595.2,286046998.5,N
1506570615.1,286046998.3,N
1506570616.0,286046998.3,N
1506570635.8,286046998.2,N
1506570655.6,286046998.7,N
1506570675.5,286047000.8,N
1506570695.3,286047002.3,N
1506570715.1,286046999.8,N
1506570735.9,286047000.6,N
1506570755.7,286047000.9,N
1506570775.5,286047000.4,N
1506570795.3,286047000.6,N
1506570815.2,286047002.1,N
1506570835.9,286046999.9,N
1506570855.7,286047000.5,N
1506570875.6,286047002.8,N
1506570895.4,286047000.7,N
1506570915.2,286046999.7,N
1506570935.1,286047001.7,N
1506570936.0,286047001.7,N
1506570955.8,286047003.7,N
1506570975.6,286047004.4,N
1506570995.5,286047004.4,N
1506571015.3,286047003.8,N
1506571035.1,286047002.9,N
1506571055.9,286047007.5,Y
1506571075.7,286047005.8,P
1506571095.5,286047005.4,N
1506571115.3,286047002.9,N
1506571135.2,286047004.0,N
1506571155.0,286047004.0,N
1506571155.9,286047004.0,N
1506571175.7,286047001.4,N
1506571195.6,286047002.1,N
